GFSFLT2_500_spd_102.txt.gz
Wind_Speed
26 24 19 14 18 21 26 30 33 33 35 37 39 30 36 29 38 34 31 30 26 26 31 31 33 29 25 28 24 17 17 16
24 21 20 17 21 19 26 34 35 36 36 32 28 24 32 31 30 30 29 27 28 29 33 32 31 35 31 30 20 17 18 17
26 24 21 22 23 14 12 17 25 26 29 27 25 22 35 23 28 32 30 27 28 31 35 31 34 38 28 20 17 16 16 13
27 26 23 23 20 18 15 16 19 21 23 24 27 23 39 39 32 30 31 31 26 29 33 28 33 31 21 20 14 14 14 11
24 26 24 24 22 19 15 13 15 20 26 30 31 32 36 35 34 35 36 31 23 28 27 25 26 20 20 18 13 14 13 10
26 24 26 24 22 20 16 12 13 21 28 30 30 32 34 40 42 31 33 28 28 27 30 27 20 21 20 16 16 15 13 11
25 27 26 23 19 18 14 14 16 20 27 32 32 34 40 44 46 23 26 31 24 32 32 21 22 24 20 20 18 17 12 11
25 28 23 22 17 16 13 12 15 22 25 30 33 36 42 53 47 26 29 30 23 24 29 26 25 23 23 20 17 16 15 15
26 26 22 20 14 14 11 8 16 9 14 22 42 52 46 46 35 31 32 28 27 25 27 29 27 24 25 20 19 18 19 16
26 25 19 14 11 12 10 7 13 9 7 27 36 45 42 39 37 31 35 31 29 30 33 35 30 27 26 25 25 22 20 17
24 24 17 10 9 11 9 6 4 13 12 22 38 41 46 40 28 31 33 31 29 27 31 30 28 28 29 29 28 24 23 22
23 22 20 12 9 12 10 6 4 1 2 33 39 52 48 36 24 30 29 33 31 24 24 31 33 30 30 31 32 30 29 29
22 22 19 13 10 12 12 8 5 5 4 13 45 46 43 43 27 28 32 28 24 22 26 29 35 34 33 33 35 35 35 34
20 20 18 13 12 11 13 9 5 3 10 13 37 47 53 47 33 30 26 25 19 20 22 24 28 31 37 37 37 37 37 32
17 17 17 13 12 11 11 9 6 3 13 23 24 42 48 47 30 28 25 25 19 19 19 22 25 29 34 29 29 25 29 25
15 15 15 12 10 13 12 11 3 3 15 22 33 36 44 47 36 30 30 30 26 24 23 23 26 26 29 29 31 31 32 27
13 13 13 9 9 11 12 14 7 5 8 20 32 36 43 45 37 35 42 34 30 29 29 26 27 27 27 34 36 32 25 24
13 12 12 8 6 6 7 11 12 9 9 13 14 23 24 30 40 34 29 33 38 34 33 25 26 28 29 33 28 25 24 27
12 13 13 11 5 3 4 8 11 13 12 13 13 16 26 25 24 28 31 26 33 31 34 33 34 29 30 28 27 25 24 26
10 12 12 13 8 6 4 5 7 11 15 16 17 17 16 17 22 25 30 30 31 32 34 40 34 30 26 26 28 28 28 29

GFSFLT2_500_spd_105.txt.gz
Wind_Speed
23 24 23 24 22 20 23 23 32 37 31 31 35 34 26 29 24 32 30 29 24 24 21 20 22 22 28 23 22 22 15 11
25 23 23 24 25 27 27 28 35 37 37 32 32 29 29 28 30 29 28 26 28 27 24 22 22 26 29 24 27 27 18 9
26 24 24 24 25 27 25 18 19 20 26 29 33 28 24 33 31 28 39 26 29 27 26 24 26 29 26 27 32 30 19 14
23 26 28 29 28 26 25 24 26 20 16 22 28 30 28 28 27 37 36 26 28 29 25 26 29 31 36 35 35 17 17 15
19 23 30 31 33 31 28 26 24 17 18 20 25 31 25 24 29 34 29 22 25 26 22 27 30 29 29 29 24 15 16 14
19 20 29 33 34 35 26 25 23 21 18 24 27 27 25 22 36 30 32 26 28 28 20 26 29 28 33 34 19 19 16 15
18 21 27 30 30 32 26 23 24 22 19 24 31 31 36 35 43 47 35 34 29 26 23 25 25 26 21 21 21 19 16 14
19 23 27 27 26 26 21 22 23 22 28 27 32 34 36 41 38 42 36 34 31 30 23 26 22 27 23 20 20 17 16 17
20 24 25 24 23 21 18 20 21 21 24 24 31 39 38 39 40 42 34 32 28 29 25 24 25 22 22 18 19 19 19 20
22 22 24 22 22 18 17 19 20 23 18 22 30 38 41 44 45 47 28 26 30 26 22 31 27 24 22 23 24 22 20 19
22 20 22 22 19 18 18 18 19 19 13 15 21 34 39 42 54 46 30 27 30 27 24 27 27 27 25 26 24 22 22 21
21 19 20 21 18 17 17 18 17 13 7 8 21 25 36 37 49 45 35 28 32 31 28 26 30 32 29 28 25 26 26 27
20 17 17 20 19 18 18 18 17 13 7 16 13 30 42 46 48 38 26 30 31 31 28 26 29 31 28 27 27 29 30 31
20 16 15 18 18 20 18 18 17 12 15 11 28 31 48 45 39 23 28 29 33 33 26 24 24 28 31 35 35 33 33 35
19 15 15 16 16 20 17 18 16 14 14 19 23 42 50 49 36 26 25 27 26 23 24 22 25 29 29 32 33 34 35 32
17 14 14 15 15 19 16 19 18 16 16 26 18 40 46 47 43 31 29 27 28 27 23 23 24 25 23 23 27 30 33 32
16 14 15 13 13 17 15 18 18 13 15 19 23 21 45 42 46 35 34 37 38 32 27 23 25 25 22 25 25 25 27 38
14 14 16 13 12 14 14 15 18 13 15 16 27 21 36 37 41 38 35 37 33 32 32 30 28 29 28 29 27 31 36 39
13 15 16 14 14 14 12 11 15 16 11 10 21 24 33 31 27 28 32 30 26 34 39 35 32 28 27 30 32 35 37 36
15 16 14 12 12 13 13 9 13 16 14 9 15 26 25 26 29 29 30 33 32 27 33 35 32 28 34 36 38 36 35 34

GFSFLT2_500_spd_108.txt.gz
Wind_Speed
19 19 17 20 23 26 26 29 33 33 27 29 27 28 31 23 32 23 19 17 14 23 22 24 21 21 22 21 18 18 22 23
21 19 15 16 22 27 28 27 29 34 27 25 27 30 27 30 23 20 23 23 17 21 22 24 23 24 21 22 23 21 26 18
24 21 19 15 19 27 29 28 29 27 32 25 22 29 29 23 24 29 33 24 23 24 26 24 23 24 17 24 25 24 26 17
23 23 22 21 19 25 32 30 28 26 22 24 18 22 31 22 22 31 30 28 27 24 27 27 25 21 21 23 26 26 29 21
23 23 22 23 24 27 32 32 29 25 24 24 18 21 29 26 27 30 27 26 31 16 27 29 26 25 26 27 27 27 26 26
25 22 21 23 25 29 32 33 29 24 23 23 21 21 23 26 30 31 26 33 26 23 28 29 27 25 27 27 29 22 23 15
26 24 21 23 26 30 30 29 29 22 22 24 20 25 25 27 31 31 25 31 26 25 28 27 25 25 29 30 24 20 19 19
23 25 22 24 26 29 27 24 22 20 21 22 28 26 28 28 26 30 32 32 27 31 29 28 25 24 29 25 23 24 20 21
22 23 23 24 26 26 24 22 19 20 22 25 25 31 35 37 35 32 36 34 31 31 31 30 26 23 22 26 27 23 22 19
23 21 24 25 24 23 22 20 20 21 22 26 32 28 34 37 36 32 40 43 36 35 32 27 24 24 28 27 25 24 21 19
25 20 23 25 22 20 20 20 20 21 22 23 33 25 35 38 39 38 40 40 40 38 31 27 27 28 29 29 27 25 23 20
25 20 22 24 20 19 20 21 20 22 21 23 28 20 35 40 42 39 41 43 42 35 33 30 34 35 32 28 26 25 24 23
27 22 23 23 18 19 21 21 20 21 21 22 23 19 32 40 44 46 44 42 39 36 34 31 33 32 31 29 29 28 27 26
33 24 24 21 18 18 21 21 21 20 20 17 24 17 20 33 43 48 49 38 39 39 37 33 33 34 31 29 30 29 30 29
32 25 23 19 18 17 20 22 20 19 19 19 22 19 18 30 36 45 51 40 32 36 35 33 33 31 31 30 29 30 32 34
31 25 22 18 17 16 19 21 19 19 17 21 22 24 22 28 31 46 51 30 34 34 32 31 34 31 29 28 30 33 34 34
29 25 23 19 15 16 18 19 18 19 16 18 22 21 25 34 39 43 35 32 35 31 33 35 31 31 32 31 31 30 29 28
28 27 23 19 14 16 17 17 18 18 18 17 18 18 25 38 39 48 40 34 31 31 35 34 33 32 29 28 28 28 30 29
30 29 22 17 15 16 18 16 17 15 17 16 15 19 16 29 39 44 38 25 27 30 35 36 32 30 28 27 30 31 30 31
32 28 22 16 14 16 15 15 15 13 15 15 11 12 15 20 30 29 26 32 30 28 39 34 36 34 31 29 25 27 28 34

GFSFLT2_500_spd_111.txt.gz
Wind_Speed
20 19 20 20 21 21 23 21 21 21 22 23 20 22 23 23 19 25 25 21 29 24 25 28 24 26 23 20 22 22 19 19
19 20 22 22 20 21 23 21 21 22 20 20 16 14 21 25 19 25 25 24 17 21 24 27 27 26 21 22 21 18 19 21
18 20 21 24 23 20 23 24 19 21 19 16 15 14 19 20 20 22 24 20 19 14 22 26 27 26 25 24 23 24 22 24
19 20 21 23 24 24 22 24 21 20 20 16 20 20 18 19 20 20 22 23 18 20 25 24 23 26 26 22 27 27 26 25
20 21 21 24 26 27 26 25 23 20 20 19 19 19 18 22 22 17 20 24 25 21 26 25 23 25 25 24 25 27 29 26
18 20 21 23 25 28 28 27 26 22 20 21 19 18 19 21 27 24 23 27 26 31 26 30 27 27 25 25 26 26 26 24
18 19 21 23 24 27 28 29 28 24 21 19 20 18 18 22 24 27 25 28 33 30 27 27 27 27 26 26 25 25 26 32
20 19 22 25 23 25 27 29 27 23 18 17 20 18 20 19 24 28 29 30 35 33 26 31 29 28 28 27 29 30 25 21
21 21 24 26 24 24 27 28 25 20 19 17 19 21 21 23 27 26 26 31 34 31 33 32 30 29 27 31 33 32 26 25
22 22 25 27 26 24 26 27 24 20 18 19 18 20 24 31 28 29 23 33 38 37 37 34 32 30 28 32 31 28 30 28
24 24 25 28 27 25 25 26 23 19 20 21 18 18 24 30 28 31 33 36 40 38 36 32 32 32 29 30 30 33 31 28
27 24 25 28 27 26 26 25 22 20 22 23 20 20 25 21 25 29 33 36 41 39 39 34 36 32 30 30 35 33 31 27
27 26 27 30 30 27 27 24 20 20 23 24 20 21 23 24 29 32 33 40 37 37 40 40 36 33 31 38 34 32 30 27
29 30 31 33 35 29 28 24 19 20 23 22 21 19 24 19 37 42 43 37 40 42 44 44 38 36 35 38 35 34 32 30
28 30 31 35 34 30 28 24 20 19 21 21 21 21 24 18 16 37 43 42 41 44 45 45 39 36 39 40 38 36 34 32
28 29 32 35 34 30 28 23 19 18 18 20 21 21 23 20 19 28 45 46 45 48 45 45 40 36 35 37 36 37 37 36
32 28 31 31 35 30 29 23 18 18 17 18 20 18 18 19 20 29 39 46 47 47 48 45 41 41 38 38 40 41 40 39
31 28 30 32 31 30 29 25 19 18 16 17 20 17 16 15 20 28 36 47 50 50 45 45 41 38 39 41 43 41 37 38
36 32 32 34 29 30 30 25 21 18 15 15 16 14 14 13 21 24 34 51 49 39 41 41 40 39 38 42 41 39 39 36
37 34 36 36 31 31 29 23 19 18 13 12 12 11 12 19 20 30 34 52 47 41 38 40 38 40 42 44 40 33 29 31

GFSFLT2_500_spd_117.txt.gz
Wind_Speed
15 15 14 16 16 19 19 19 19 21 23 21 18 14 16 20 23 23 21 22 20 20 17 15 21 27 29 30 28 27 26 23
18 16 16 15 16 18 18 18 19 20 22 22 18 15 17 13 14 20 18 20 22 21 19 15 17 24 28 30 28 28 26 24
22 19 16 15 15 18 18 19 19 20 21 20 20 17 16 17 17 19 20 21 23 21 18 21 24 25 28 31 31 29 26 23
24 24 18 16 17 18 18 19 19 20 21 20 20 19 17 19 19 18 18 22 22 20 21 24 20 29 29 32 31 30 29 24
28 28 23 17 17 18 19 18 20 21 22 19 20 19 17 19 18 16 17 25 23 20 20 17 19 25 28 33 31 30 28 25
30 32 27 21 18 19 21 18 19 23 25 20 18 18 20 20 18 14 14 20 21 22 21 18 22 26 29 31 32 32 30 25
30 34 28 25 20 21 22 20 20 24 27 24 18 19 18 18 17 14 15 20 22 21 24 20 24 25 27 29 32 32 30 29
31 32 34 25 24 23 23 21 21 24 27 27 20 21 18 16 16 16 15 21 25 27 22 25 25 25 26 31 31 31 30 30
30 31 37 27 26 25 25 21 22 24 27 28 21 20 19 18 16 18 15 19 26 28 21 29 26 29 28 30 30 32 31 28
31 32 36 30 29 26 26 24 22 22 26 28 24 21 22 21 19 20 20 15 22 33 29 29 31 34 27 33 32 32 27 27
32 33 34 33 32 27 28 24 22 22 23 28 26 23 23 24 21 21 26 27 24 31 35 35 34 33 30 34 36 35 30 29
34 33 35 34 34 29 29 26 24 24 23 26 27 25 25 24 26 24 26 28 28 30 36 38 36 39 35 38 39 37 34 31
35 34 34 34 34 31 30 32 28 25 24 26 28 26 27 26 28 27 25 31 29 31 31 31 35 37 36 39 43 39 34 32
36 35 35 33 33 32 32 35 31 28 25 25 28 28 29 27 28 29 26 27 33 35 35 37 32 35 39 42 41 37 31 30
38 35 34 32 33 33 35 36 33 30 25 25 28 29 32 28 28 30 27 28 29 34 38 38 31 36 39 40 39 36 38 34
39 37 36 33 35 34 38 36 36 32 27 27 29 29 31 29 28 29 28 27 30 31 39 40 36 36 42 39 39 39 40 36
39 39 36 33 36 36 38 37 40 35 32 29 29 30 31 31 28 29 28 27 33 30 40 42 39 39 39 41 41 39 36 36
42 39 37 34 36 37 38 40 43 39 34 31 30 31 32 31 30 31 30 31 33 30 39 46 44 42 44 45 42 40 42 40
38 38 36 36 36 39 38 41 43 41 36 33 30 31 32 32 31 31 32 34 34 38 35 48 47 39 37 39 43 46 49 45
37 35 35 38 39 40 40 41 43 41 39 34 31 31 31 30 31 30 33 37 35 33 41 47 48 40 41 40 41 46 50 45

GFSFLT2_500_spd_120.txt.gz
Wind_Speed
16 17 19 16 13 15 16 17 18 19 21 20 20 23 20 19 20 21 19 20 16 14 12 16 21 26 28 27 27 27 27 27
19 17 19 19 14 16 17 17 19 19 19 21 20 22 22 19 21 17 15 20 19 20 14 14 15 21 24 27 28 28 28 26
22 19 21 20 17 16 16 17 19 20 19 18 20 21 22 20 22 18 17 17 15 16 17 19 17 14 16 22 28 26 28 27
25 22 23 22 20 18 19 17 18 19 20 18 19 21 22 20 19 20 21 18 19 17 20 21 19 20 21 23 28 28 29 27
30 26 26 24 21 20 21 19 18 20 21 18 18 19 18 18 20 20 20 19 20 23 22 20 23 22 21 28 26 29 28 28
35 30 27 27 23 22 22 20 20 20 24 19 18 20 18 17 19 20 20 20 19 24 23 22 22 18 23 24 24 26 30 28
36 35 30 30 26 24 23 22 21 20 23 21 18 20 20 17 18 17 17 18 18 22 22 21 18 19 20 20 27 27 24 28
32 35 33 31 33 25 25 23 22 22 23 21 19 20 20 18 16 17 16 16 18 22 21 21 21 21 20 21 25 25 25 29
38 34 34 32 33 28 28 24 23 23 24 22 18 19 20 17 16 15 16 18 19 23 25 21 24 25 25 23 24 24 27 26
36 37 32 33 31 29 30 26 25 24 24 24 20 19 20 18 18 16 17 19 17 22 26 31 31 26 27 26 25 25 28 25
37 34 32 33 33 27 29 28 28 27 24 24 23 21 21 21 19 20 17 19 23 22 22 29 25 30 27 30 26 25 26 24
36 34 30 32 34 26 28 29 29 29 26 25 27 23 21 23 21 21 21 22 23 28 28 24 30 30 30 31 27 25 29 27
33 35 32 31 30 28 28 29 31 28 28 27 28 25 22 22 24 23 24 24 26 26 30 27 32 36 38 36 36 31 32 33
36 34 36 31 29 28 29 30 32 29 27 29 27 25 23 23 25 24 26 26 28 25 27 29 29 38 40 40 38 37 33 34
33 35 36 33 30 28 29 31 30 29 28 28 26 28 23 24 26 26 27 26 28 30 27 28 33 36 36 34 32 34 34 34
38 38 36 35 32 29 30 31 30 30 29 28 27 27 26 26 26 27 27 28 28 30 28 27 34 39 36 39 35 38 37 38
39 38 38 36 33 33 32 32 31 30 28 32 27 28 27 29 27 28 28 29 30 30 32 30 29 41 41 41 35 34 37 38
40 37 40 36 35 36 34 32 32 31 30 32 30 30 30 29 30 28 28 29 32 34 34 32 31 37 40 37 34 38 41 40
40 40 43 39 37 38 36 34 35 33 32 34 30 31 31 30 33 28 28 30 32 36 37 33 38 37 40 42 39 36 41 41
42 42 43 39 35 39 38 36 35 35 33 34 32 32 33 34 34 27 28 31 33 35 34 36 40 39 39 46 44 42 41 42

GFSFLT2_500_spd_123.txt.gz
Wind_Speed
16 13 12 13 13 13 12 12 13 16 19 21 21 22 20 18 17 16 17 15 17 18 10 8 16 23 27 27 28 25 25 25
19 18 14 14 14 15 13 14 15 16 18 20 21 23 20 19 17 17 15 14 16 19 17 13 13 17 23 25 28 27 27 26
22 22 19 17 15 16 17 17 16 17 18 19 21 21 23 19 17 14 13 13 15 21 14 17 14 14 17 21 25 28 27 26
27 25 23 19 19 17 19 19 18 18 19 19 20 22 21 21 17 14 13 13 14 17 16 19 18 16 15 17 20 23 29 26
30 30 27 23 21 20 20 22 21 20 20 19 19 21 20 21 18 13 14 15 14 18 19 19 20 18 17 21 20 21 26 26
29 31 30 27 23 23 22 23 24 23 22 20 20 20 19 20 20 16 13 15 15 17 17 22 20 16 21 22 19 23 24 26
28 32 29 30 26 25 24 24 25 24 23 22 20 19 19 18 18 16 14 14 15 15 16 23 22 19 23 21 18 22 22 23
31 28 31 28 27 29 27 24 24 25 24 23 21 19 20 16 16 16 14 14 16 14 16 21 21 19 20 19 21 21 21 23
35 31 29 30 26 29 30 24 26 24 23 23 21 20 21 16 14 15 14 13 16 16 16 24 22 22 20 25 20 17 19 25
42 34 29 30 27 28 31 25 27 24 23 23 23 20 22 19 14 13 15 15 15 17 16 20 21 20 24 25 25 19 20 25
43 40 30 30 28 27 30 27 27 22 24 22 23 23 23 22 18 13 14 16 16 17 19 18 21 23 26 31 24 23 21 23
43 42 33 30 29 27 27 28 27 23 23 22 22 23 25 24 21 16 15 15 19 19 21 24 23 21 28 33 30 27 24 23
42 39 32 29 29 27 27 30 29 26 22 23 23 23 23 26 21 19 15 16 18 21 23 23 24 25 24 31 35 27 27 24
36 34 30 27 30 28 28 30 29 29 25 21 23 24 22 25 23 21 18 17 17 20 24 26 26 26 27 27 33 33 29 30
37 34 30 31 33 32 28 30 29 30 23 24 24 23 21 23 24 22 21 20 19 20 23 25 27 28 23 25 31 36 34 35
40 38 32 34 33 31 29 31 31 30 27 29 25 24 22 21 23 24 23 24 22 21 23 27 29 30 28 30 31 31 30 32
39 36 34 37 35 32 32 34 34 32 31 31 26 25 24 21 22 24 23 26 27 24 24 26 29 29 26 25 29 32 37 32
41 36 37 36 36 32 33 36 35 33 33 32 28 27 27 22 23 23 24 27 29 27 26 26 30 32 28 29 31 38 36 36
42 39 31 36 39 37 35 37 36 35 36 34 30 29 29 23 24 24 25 28 29 28 27 28 30 32 32 28 28 38 40 36
39 38 37 42 41 37 37 39 39 37 37 35 30 30 32 26 24 23 27 29 29 29 28 29 30 32 31 32 34 32 44 38

GFSFLT2_500_spd_126.txt.gz
Wind_Speed
29 22 18 17 16 13 13 12 13 14 15 16 18 19 21 19 19 16 13 11 11 11 13 8 11 16 22 22 26 27 25 24
30 24 19 16 17 15 15 14 13 15 16 17 19 19 21 21 19 16 14 11 10 10 13 16 14 16 20 21 23 25 25 26
29 27 21 17 16 16 16 17 16 16 17 18 20 20 21 21 21 17 13 13 10 12 12 15 12 15 13 17 22 23 27 26
33 28 26 21 19 18 17 17 18 18 18 20 20 20 20 20 20 17 12 14 11 11 13 14 15 16 15 18 19 22 26 26
31 31 29 24 21 21 20 19 20 20 20 21 22 22 20 20 18 17 13 14 12 12 14 16 13 18 17 17 16 19 20 23
28 31 30 26 23 23 21 21 21 22 21 21 23 22 21 18 18 17 12 13 14 13 15 16 17 18 19 15 20 19 20 22
28 31 29 29 24 25 21 21 20 23 22 21 22 21 20 18 18 17 11 12 13 12 14 14 17 18 18 18 21 19 19 23
30 29 29 31 27 26 25 22 20 21 22 21 21 21 19 17 18 17 10 11 12 13 14 13 14 18 22 20 23 23 19 23
36 32 30 31 29 28 27 26 22 20 22 21 21 21 18 16 16 18 13 10 11 12 14 14 13 20 24 22 21 24 17 21
40 36 31 30 30 32 31 28 25 21 21 22 21 20 20 17 16 17 16 11 13 12 13 14 13 20 27 23 24 27 21 23
42 41 33 29 30 34 34 29 26 23 22 24 23 20 21 19 15 16 17 14 12 14 14 15 15 15 22 23 24 25 29 24
43 43 36 31 31 37 36 31 28 25 25 27 24 20 21 19 15 14 17 16 15 15 17 18 17 19 19 19 23 29 29 26
47 43 41 33 34 35 35 32 31 29 28 29 27 22 22 20 18 14 16 17 16 16 18 20 20 19 21 22 20 21 34 28
50 46 43 35 35 35 37 35 31 33 31 30 29 21 24 21 20 16 17 17 17 17 19 21 21 22 23 24 25 23 27 30
48 45 40 39 38 36 38 37 34 33 30 31 28 26 26 22 21 19 18 19 18 19 20 22 23 24 25 24 21 23 25 27
52 46 43 39 37 36 37 35 35 34 33 34 32 32 28 24 23 21 19 19 20 21 22 24 24 23 25 26 27 25 27 28
47 43 40 37 37 37 36 36 37 37 37 36 35 33 31 26 25 23 21 20 19 23 24 25 25 25 24 28 27 23 23 27
48 45 42 43 40 38 37 36 36 38 39 37 37 35 34 30 28 24 24 22 20 23 25 25 26 26 25 26 28 28 24 23
46 47 44 42 39 39 38 34 36 39 39 38 39 38 35 33 31 26 25 25 23 23 26 27 28 27 27 26 28 32 26 21
46 44 39 36 37 39 38 37 39 39 38 38 39 39 37 35 32 28 27 25 25 25 26 28 28 27 26 26 28 28 30 30

GFSFLT2_500_spd_129.txt.gz
Wind_Speed
32 36 31 26 23 20 18 17 15 14 14 15 15 16 19 18 17 17 17 14 12 10 9 5 3 13 19 21 21 23 23 23
32 39 34 26 23 19 18 17 16 14 14 15 16 18 19 19 19 18 18 15 11 10 9 6 8 12 17 25 20 20 19 21
30 39 35 26 23 21 17 17 16 15 14 15 17 18 19 20 20 18 18 15 11 9 7 9 9 10 17 18 19 18 19 21
39 36 35 30 25 23 19 18 17 15 14 15 16 18 20 20 20 18 17 14 11 10 9 8 9 12 14 15 15 17 18 22
32 32 33 30 27 24 21 19 19 18 15 15 15 16 19 20 19 17 17 15 11 10 12 11 11 9 15 12 12 15 19 21
36 32 37 34 30 25 22 20 20 19 18 16 16 16 18 20 18 16 16 14 12 11 11 13 13 11 14 17 15 17 19 17
41 33 33 32 30 25 23 22 21 20 18 17 16 17 18 19 17 15 14 13 12 10 9 13 14 13 15 19 17 20 18 21
43 32 34 33 32 27 25 24 23 21 20 18 17 17 17 19 16 14 14 13 12 11 10 11 13 13 18 19 18 19 24 26
44 33 31 32 31 30 28 26 26 22 22 19 18 17 17 18 16 15 14 13 13 13 12 11 11 12 17 21 22 24 27 25
51 38 33 32 32 32 32 30 28 26 25 21 20 19 18 18 18 15 14 13 14 14 15 13 13 14 13 21 25 25 25 26
57 44 38 37 35 35 35 34 31 29 28 24 22 23 19 18 19 17 15 14 13 16 16 17 16 17 15 15 26 26 24 29
61 49 41 41 41 39 38 35 33 31 30 27 27 27 22 20 19 19 15 14 13 15 18 18 19 18 18 15 14 28 26 31
66 59 47 47 45 42 38 37 36 36 35 32 31 30 26 21 21 21 19 16 14 15 18 18 19 21 20 20 20 18 24 24
67 66 56 49 45 40 40 39 37 40 39 34 33 31 30 23 24 23 22 18 17 16 19 19 20 21 21 24 24 21 20 21
72 70 66 47 46 43 41 43 40 46 36 34 33 34 34 28 28 24 24 21 20 19 20 21 21 21 23 23 24 24 26 22
79 74 69 52 47 43 45 44 40 41 40 40 36 37 37 32 32 26 26 24 22 21 22 22 22 23 23 26 25 26 27 23
80 75 66 50 44 43 46 44 44 43 44 42 40 39 38 35 32 29 28 29 25 24 24 23 22 24 25 27 26 24 27 26
60 62 60 56 51 50 48 44 44 45 44 43 43 40 37 36 34 29 30 31 29 27 26 24 25 24 25 26 26 26 25 28
55 52 47 50 47 46 45 48 44 44 44 45 44 41 37 36 34 33 32 32 30 29 28 27 26 25 26 27 26 28 27 27
58 61 52 48 48 43 45 45 44 44 46 43 44 42 39 39 37 36 33 35 31 31 30 30 28 26 27 27 27 27 28 31

GFSFLT2_500_spd_135.txt.gz
Wind_Speed
47 40 35 35 32 23 20 18 16 15 14 12 11 9 9 11 12 12 15 13 10 8 8 8 6 6 7 4 13 16 22 25
48 47 43 42 38 28 18 17 15 15 15 12 12 10 9 9 10 13 13 12 11 8 6 6 7 7 7 7 10 18 20 21
45 44 42 40 33 32 20 16 15 16 15 14 13 11 10 9 9 12 11 12 10 6 5 7 7 8 9 6 7 12 21 20
45 45 44 41 36 33 28 19 18 16 16 16 15 13 10 10 8 11 11 12 10 9 5 8 8 8 12 7 5 7 13 15
41 43 44 42 38 32 31 23 19 18 18 17 17 15 13 10 8 8 10 12 9 9 6 10 9 9 11 8 5 6 11 17
45 42 45 44 41 34 32 28 24 22 20 19 17 17 15 13 11 8 9 11 9 9 7 8 9 12 12 10 11 7 9 12
54 49 42 45 44 40 32 30 30 26 22 21 18 18 16 14 14 11 9 10 10 8 8 6 9 12 12 11 10 12 14 13
60 59 55 46 48 50 40 33 35 32 26 24 21 20 19 15 15 14 10 10 10 9 9 8 7 11 11 12 9 13 15 14
66 66 62 58 56 52 48 36 33 36 32 27 24 22 21 18 17 16 14 12 11 10 10 10 9 9 11 14 13 14 13 18
68 70 69 65 60 54 48 43 37 37 36 33 28 25 23 22 20 19 16 14 13 12 11 11 9 9 11 11 14 17 19 20
69 71 71 68 61 59 56 45 36 39 41 38 33 28 26 24 23 21 18 17 16 14 12 11 12 9 9 12 13 17 19 24
76 75 72 69 68 64 60 46 41 36 39 41 38 31 29 26 26 24 20 20 18 16 14 12 13 12 11 11 13 15 19 21
78 81 78 70 71 67 64 60 52 39 37 40 38 36 31 28 28 27 22 22 21 19 17 15 14 14 12 13 13 13 17 21
78 81 84 78 72 67 63 61 51 44 40 40 40 39 35 31 29 29 26 25 24 22 21 18 17 16 15 14 14 15 15 19
80 77 80 83 75 70 65 64 53 50 43 43 42 39 36 33 30 30 29 27 26 26 24 22 20 19 18 16 15 16 18 17
82 79 74 79 76 74 69 54 55 52 46 37 41 39 38 37 35 31 31 29 28 29 27 25 22 21 19 20 17 17 18 18
82 78 71 71 76 73 69 65 61 54 52 44 45 40 40 36 40 34 33 31 30 31 30 27 26 24 22 21 21 19 19 19
80 76 69 67 66 71 70 61 61 59 52 51 49 42 41 39 43 40 34 34 33 33 33 30 29 26 25 23 23 23 22 22
73 72 65 63 55 59 63 65 60 58 55 54 51 47 45 41 44 44 39 37 37 34 33 33 32 28 28 26 25 26 25 24
67 67 61 56 54 47 52 56 66 59 56 57 56 52 48 44 48 47 44 40 40 37 35 36 34 31 29 29 27 28 30 27

GFSFLT2_500_spd_138.txt.gz
Wind_Speed
38 39 38 35 33 31 33 28 24 17 14 10 7 7 7 8 9 10 11 12 11 10 11 8 6 6 7 7 14 14 19 17
37 38 38 38 35 31 27 28 26 21 16 11 8 9 9 9 9 10 11 12 10 9 9 8 6 7 9 8 12 17 18 23
38 39 38 40 38 35 30 26 25 26 21 16 11 10 10 12 11 10 11 12 12 8 6 9 6 7 8 8 10 13 13 18
41 40 42 40 40 38 33 28 23 27 27 22 17 13 12 12 13 12 12 11 11 10 6 10 7 11 10 13 12 12 11 12
44 44 43 42 39 40 36 30 26 22 26 27 20 18 15 14 14 14 12 12 10 9 7 10 12 12 11 9 13 12 9 11
48 47 46 45 43 42 39 35 29 25 27 30 24 21 18 16 15 15 13 14 11 9 10 11 10 11 9 8 12 14 11 12
50 51 50 50 48 46 44 40 33 29 29 30 29 24 21 18 17 17 16 15 12 10 10 11 11 10 10 9 11 14 14 12
53 55 54 54 52 53 46 46 41 34 29 32 31 29 26 22 19 18 16 17 14 12 11 10 13 10 11 10 9 10 17 17
53 56 59 58 58 56 55 48 48 42 38 34 33 32 31 26 22 20 18 18 17 14 13 11 14 11 12 10 9 10 13 18
59 58 60 62 62 60 57 56 56 49 43 34 34 36 34 31 26 22 20 18 18 17 15 13 13 13 12 12 8 10 11 20
61 66 64 65 65 66 64 61 58 57 47 42 38 39 37 35 31 25 22 20 19 19 17 15 13 13 12 11 11 10 11 13
69 63 70 69 70 68 68 65 64 59 53 48 41 43 40 37 35 29 26 22 21 20 19 17 15 14 13 12 10 10 11 13
81 80 75 71 75 75 72 68 66 62 53 46 42 41 43 39 38 33 29 25 24 20 21 19 17 16 14 14 12 10 10 12
87 75 78 78 78 79 77 71 66 60 57 51 48 40 41 42 38 36 34 29 26 23 22 21 20 18 17 15 15 14 14 10
54 64 80 88 85 83 81 75 70 69 62 55 50 43 43 43 38 38 36 33 29 26 24 22 23 20 21 18 17 18 17 17
59 60 64 95 87 83 84 81 78 66 65 58 52 46 46 42 37 41 39 37 32 29 28 26 21 22 22 22 19 20 20 19
57 63 69 83 88 83 82 78 74 69 66 55 51 51 46 41 39 42 41 37 35 31 30 28 25 24 24 24 22 21 22 21
50 52 60 77 83 80 77 75 73 72 54 57 54 48 46 42 41 42 44 39 35 32 33 32 29 27 25 25 25 25 23 22
40 42 50 70 73 75 71 70 66 68 66 64 64 47 50 48 45 44 43 44 38 34 34 34 31 30 28 28 27 26 25 24
20 23 48 55 65 66 61 63 62 62 67 62 50 45 48 49 46 44 46 48 45 39 37 35 33 32 32 30 29 27 27 27

GFSFLT2_500_spd_141.txt.gz
Wind_Speed
31 30 30 29 29 25 23 22 23 20 21 22 15 15 13 10 9 8 8 11 11 10 11 12 12 11 10 9 10 10 14 15
36 36 35 33 31 31 25 23 23 21 22 22 22 17 15 14 13 11 9 10 11 10 10 11 11 10 10 10 8 13 17 18
38 38 38 38 39 35 32 27 25 21 22 21 22 21 18 16 16 15 12 12 11 11 9 11 11 11 11 8 9 11 14 19
40 39 40 39 40 41 38 34 27 25 20 21 24 22 23 19 18 19 17 15 12 11 9 9 11 12 14 10 12 9 16 17
40 41 41 41 42 41 42 37 35 28 23 21 23 25 25 23 20 20 20 18 14 13 10 9 11 12 16 14 13 10 12 14
41 42 42 43 45 44 45 43 39 34 28 24 24 26 28 26 25 22 21 21 17 13 12 11 11 12 14 15 13 12 12 14
41 43 45 46 46 46 47 46 47 40 36 29 26 29 29 27 26 26 24 23 21 15 13 12 11 11 14 15 13 12 13 12
41 43 46 47 48 49 49 49 48 48 42 35 31 29 30 30 28 29 27 24 23 19 16 14 13 11 12 14 13 12 12 13
43 44 46 48 50 52 53 53 53 52 46 43 35 32 30 32 32 31 30 26 24 23 17 16 15 13 13 15 13 13 15 13
45 47 46 48 51 53 55 57 57 57 52 46 44 37 38 36 35 33 31 28 25 24 21 19 17 15 14 15 13 14 15 15
49 52 54 54 53 54 58 59 61 62 58 50 48 43 39 38 37 36 34 31 27 24 24 22 18 17 15 14 14 16 15 15
63 65 66 68 67 66 61 60 63 65 64 57 49 50 41 40 42 40 37 34 30 26 24 24 21 19 17 15 15 14 15 17
74 79 79 83 81 80 78 73 65 67 69 64 55 53 47 41 43 45 40 37 33 31 25 25 23 20 19 18 16 15 14 15
85 91 93 95 94 80 84 83 77 67 71 68 62 57 52 41 43 45 44 39 38 33 28 27 23 22 21 20 19 18 16 14
67 66 60 68 71 75 87 85 81 79 71 73 67 61 56 47 41 41 44 43 41 35 32 29 26 23 22 21 22 21 19 17
55 58 61 56 56 53 85 94 92 83 74 74 73 64 59 51 49 42 42 46 41 37 35 32 29 24 23 22 24 23 22 20
54 54 56 55 58 59 61 86 89 87 83 76 81 68 61 56 50 43 40 45 42 39 36 33 32 29 24 24 23 23 24 23
48 58 60 62 63 61 65 68 76 88 84 79 74 70 63 64 50 43 42 45 44 38 37 35 34 33 28 25 23 24 26 26
56 53 51 53 56 60 67 64 65 85 82 79 76 69 70 62 54 43 45 43 42 38 36 37 37 34 31 29 27 25 26 27
47 45 38 40 43 51 58 64 61 76 81 81 78 80 72 59 51 44 45 42 42 41 38 39 38 37 33 31 31 28 27 27

GFSFLT2_500_spd_144.txt.gz
Wind_Speed
28 29 30 29 28 27 25 23 22 20 17 16 14 13 17 18 14 13 11 12 10 10 10 10 9 9 13 12 15 13 12 14
34 34 34 34 31 31 29 27 24 23 21 17 16 15 13 18 19 16 14 14 12 10 10 9 9 8 11 11 13 9 9 15
38 38 37 37 36 34 32 30 28 25 23 20 18 17 17 16 19 21 17 16 16 13 10 8 8 8 9 10 13 12 12 11
39 40 39 39 39 38 37 35 32 29 25 23 20 19 18 19 18 21 22 21 21 17 13 10 7 8 9 12 14 14 17 14
39 41 41 40 40 40 40 37 36 33 30 25 24 21 20 20 20 20 22 24 24 21 17 13 10 9 10 13 14 12 13 18
39 38 40 40 40 40 40 40 39 37 34 31 25 25 23 22 21 21 23 24 25 25 21 16 13 9 11 12 15 14 12 11
37 37 36 37 39 41 41 43 41 41 39 37 33 25 25 25 24 23 23 26 27 28 25 21 14 13 13 14 12 15 14 14
38 37 37 39 39 41 44 43 44 43 43 43 39 36 27 26 27 25 25 25 28 29 29 25 18 15 14 13 13 15 16 12
41 41 42 42 44 44 45 46 46 46 45 44 44 40 38 28 29 31 29 28 27 30 31 30 22 17 16 15 15 16 16 14
40 42 44 44 44 46 46 47 49 47 48 49 45 44 40 36 31 32 34 32 29 30 31 31 25 20 19 18 17 17 18 14
44 45 46 50 49 48 49 49 50 51 50 51 51 48 43 40 36 33 34 34 32 30 32 31 29 22 22 19 18 16 17 16
52 55 57 58 58 61 60 60 57 55 54 53 53 54 49 42 42 34 35 33 34 33 33 33 30 26 22 20 18 18 16 17
61 62 65 68 69 68 70 71 71 69 64 61 58 58 58 49 44 41 37 35 35 38 35 35 31 29 23 22 20 18 17 15
66 68 70 76 78 79 80 80 80 80 78 74 67 61 63 55 48 45 40 38 39 38 39 37 35 29 25 22 22 20 19 16
74 77 78 78 69 65 67 74 66 72 77 82 83 71 64 65 55 50 44 39 41 39 41 39 38 33 26 24 23 23 20 19
78 76 64 56 60 63 67 69 64 58 83 83 76 85 84 73 66 57 50 42 39 39 40 42 40 36 31 25 26 26 23 22
67 56 52 59 64 65 65 68 67 69 59 88 88 81 74 87 72 64 55 47 42 40 40 43 41 38 35 30 27 26 24 24
54 50 63 52 51 56 63 66 66 60 62 51 84 89 83 57 71 70 62 52 48 44 39 46 44 40 38 34 29 27 25 27
54 59 57 55 57 54 57 59 60 66 60 51 48 90 87 79 71 76 69 55 49 45 40 46 45 41 38 36 35 31 27 27
57 59 47 47 46 46 44 48 49 56 63 55 49 80 85 92 75 77 76 58 52 48 41 43 45 45 40 36 35 35 31 28

GFSFLT2_500_spd_147.txt.gz
Wind_Speed
27 30 29 29 29 27 26 25 24 22 20 19 17 15 11 11 11 14 16 15 14 12 11 13 14 14 15 13 7 9 10 11
32 33 35 34 34 33 31 29 27 26 23 20 19 18 16 11 12 13 15 17 15 13 13 13 14 13 14 14 7 8 8 8
37 37 38 39 38 38 36 35 31 29 26 23 20 18 18 16 13 13 15 17 17 16 16 15 14 15 13 15 10 10 10 11
38 38 39 40 41 40 39 38 37 33 30 26 23 19 17 19 17 15 15 16 19 19 19 17 17 16 15 14 15 12 14 18
43 42 42 44 41 40 40 41 39 37 32 29 25 23 20 17 20 19 16 16 18 20 21 20 20 18 17 17 17 14 13 16
44 45 43 43 44 45 42 41 41 39 36 33 28 25 22 20 18 21 20 18 19 18 21 21 21 20 17 19 18 12 14 13
38 38 39 36 37 40 41 40 40 40 38 36 33 30 26 24 22 19 22 22 22 21 21 23 22 22 18 19 20 14 17 16
37 37 37 37 37 38 37 39 38 42 41 40 38 36 32 27 25 23 22 22 23 25 24 22 23 22 21 19 21 16 16 16
37 39 40 41 40 40 41 42 44 42 42 46 43 39 39 34 28 28 26 24 24 26 27 26 23 23 22 23 22 20 19 17
39 41 43 45 46 44 46 46 47 49 49 46 49 45 42 41 35 30 31 29 28 27 28 31 26 23 22 26 23 20 20 20
42 44 46 45 45 48 48 49 51 51 53 52 49 52 49 45 42 38 33 34 30 29 29 31 32 26 22 26 25 23 21 21
43 44 48 51 52 53 54 57 58 58 56 57 54 52 54 52 46 42 40 36 35 30 31 34 33 32 23 24 27 25 24 19
46 49 53 57 60 61 62 62 63 66 66 65 62 59 55 57 52 47 45 41 36 36 33 34 34 35 30 25 27 28 26 21
51 55 58 63 66 69 71 70 70 70 68 68 69 70 65 61 58 53 49 47 42 40 36 35 37 36 36 29 25 28 29 24
55 61 65 69 75 78 81 79 76 77 78 76 76 74 73 71 65 62 59 56 49 43 42 37 39 37 39 34 27 28 29 27
61 66 71 76 81 74 69 63 57 59 61 66 67 75 77 78 74 69 68 64 57 47 45 42 41 38 37 39 32 30 28 29
64 72 75 69 51 50 48 57 59 54 59 56 57 58 81 83 83 77 73 79 63 58 50 46 43 41 37 41 38 33 28 29
69 70 59 52 52 58 51 50 52 53 54 56 56 63 61 81 92 87 90 70 76 63 53 49 45 39 39 43 40 34 28 30
69 58 53 50 53 47 48 51 55 57 58 58 59 59 61 66 80 96 98 72 87 69 62 52 48 44 39 42 41 36 32 31
63 51 52 57 42 42 47 53 52 50 52 53 60 67 60 64 66 87 97 96 57 72 70 57 52 49 41 46 46 39 35 33

GFSFLT2_500_spd_150.txt.gz
Wind_Speed
27 30 32 31 31 31 30 30 29 27 27 25 24 24 20 17 17 13 12 15 18 19 17 17 16 18 16 14 12 11 11 9
32 32 34 34 34 35 35 35 34 31 30 29 28 26 24 21 19 18 15 14 16 18 19 17 17 18 16 14 13 11 12 13
31 33 34 38 39 39 38 39 39 37 35 32 31 29 26 24 20 20 20 16 15 17 19 18 18 19 18 14 15 14 13 12
35 35 37 38 39 39 40 40 41 41 39 37 34 31 30 27 24 21 21 20 18 17 17 18 20 20 20 16 17 15 14 15
37 39 35 36 37 40 41 40 40 43 43 42 38 33 30 30 28 26 21 22 21 20 18 17 18 20 20 20 16 17 17 13
40 40 40 41 41 41 42 42 40 41 42 42 41 36 33 30 29 29 26 23 22 23 20 19 18 19 20 20 17 16 16 16
38 38 38 37 36 37 38 39 42 40 38 41 43 39 35 33 30 31 29 27 24 24 23 20 20 20 19 20 18 17 15 17
34 37 38 38 38 38 38 40 41 41 39 39 43 43 39 36 33 31 32 30 27 26 25 23 21 22 20 21 19 19 17 17
34 37 38 40 41 41 41 40 40 43 42 43 43 44 44 41 39 35 33 33 32 28 26 26 24 21 24 22 20 22 21 19
37 38 41 42 42 45 46 46 46 45 46 46 46 46 46 49 44 41 38 36 37 33 30 28 27 23 23 24 23 24 23 19
40 41 42 43 44 45 46 48 50 52 52 52 50 49 49 51 52 47 47 42 41 39 35 31 27 23 25 26 24 25 25 21
42 43 43 45 46 47 48 49 52 55 57 58 59 57 55 54 54 54 52 52 45 43 39 34 32 28 26 25 26 24 27 25
42 44 46 48 50 53 55 57 59 59 61 63 64 64 64 63 61 58 55 56 55 47 45 42 38 32 30 26 25 26 26 26
41 43 47 50 53 57 61 64 66 71 72 71 70 70 68 68 70 67 61 59 60 56 48 46 43 39 31 29 30 26 27 25
44 47 50 54 59 63 67 74 79 75 78 80 82 79 76 76 71 73 73 68 63 59 56 50 48 44 35 34 30 26 27 25
47 47 51 57 65 67 74 66 48 48 51 50 59 70 79 78 76 75 78 78 71 61 59 54 54 48 44 39 33 32 30 26
44 47 54 60 66 73 58 48 56 56 50 49 54 53 58 67 77 82 80 82 82 72 64 64 59 54 47 41 36 35 32 31
46 50 57 62 69 65 50 60 42 35 38 39 46 51 61 69 72 78 85 87 88 81 74 69 67 59 52 45 41 38 35 31
47 52 58 63 68 60 54 48 40 39 46 49 58 61 60 65 70 69 82 94 92 91 85 71 75 70 61 48 42 40 40 38
47 53 58 62 65 56 55 45 40 42 47 52 60 51 55 62 72 73 74 73 96 97 87 77 81 75 67 55 46 45 44 41